Location: ??????
(42.0089°N, 44.3281°E)
Time: 15:32:20
(UTC+00:00)

Cosmos 2237 - Pass Details

Date: 24 October 2021
Orbit: 845 x 856 km, 70.8° (Epoch: 07 December)

Event Time Altitude Azimuth Distance (km) Brightness Sun altitude
Rises 15:40:55 0° 205° (SSW) 3,403 7.7 -18.0°
Reaches altitude 10° 15:43:21 10° 207° (SSW) 2,473 7.0 -18.4°
Maximum altitude 15:49:03 81° 294° (WNW) 869 4.3 -19.5°
Drops below altitude 10° 15:54:48 10° 23° (NNE) 2,495 6.4 -20.6°
Enters shadow 15:56:40 - 24° (NNE) 3,203 7.0 -20.9°
